Location: Lafig�re
(44.4503°N, 4.0357°E)
Time: 16:41:47
(UTC+00:00)

Cosmos 1025 Rocket - Pass Details

Date: 24 September 2020
Orbit: 595 x 617 km, 82.5° (Epoch: 26 October)

Event Time Altitude Azimuth Distance (km) Brightness Sun altitude
Rises 18:28:33 0° 353° (N) 2,893 6.7 -10.0°
Reaches altitude 10° 18:30:47 10° 356° (N) 1,986 5.8 -10.4°
Maximum altitude 18:35:11 71° 80° (E) 656 3.0 -11.2°
Drops below altitude 10° 18:39:33 10° 165° (SSE) 1,975 5.4 -12.0°
Sets 18:41:46 0° 168° (SSE) 2,876 6.2 -12.3°
